This is the latest recevied weather packets stored in our database for station/object N2ZVN. If no packets are shown the sender has not sent any weather packets the latest 10 day(s).
| Time | Temp. | Humidity | Pressure | Rain* | Wind** | Luminosity | Snow |
|---|---|---|---|---|---|---|---|
| 1787938134 | 19.44° C | 59% | 1022.7 hPa | 0 mm | - | 105 W/m² | - |
| 1787937829 | 19.44° C | 58% | 1022.6 hPa | 0 mm | - | 419 W/m² | - |
| 1787937525 | 19.44° C | 60% | 1022.5 hPa | 0 mm | - | 36 W/m² | - |
| 1787937222 | 19.44° C | 59% | 1022.7 hPa | 0 mm | - | 662 W/m² | - |
| 1787936916 | 19.44° C | 54% | 1022.7 hPa | 0 mm | - | 799 W/m² | - |
| 1787936615 | 19.44° C | 61% | 1022.7 hPa | 0 mm | - | 799 W/m² | - |
| 1787936314 | 19.44° C | 58% | 1022.8 hPa | 0 mm | - | 798 W/m² | - |
| 1787936010 | 19.44° C | 59% | 1022.6 hPa | 0 mm | - | 799 W/m² | - |
| 1787935706 | 20° C | 60% | 1022.8 hPa | 0 mm | - | 798 W/m² | - |
| 1787935402 | 20° C | 56% | 1022.9 hPa | 0 mm | - | 798 W/m² | - |
| 1787935098 | 20.56° C | 62% | 1022.6 hPa | 0 mm | - | 794 W/m² | - |
| 1787934793 | 20° C | 62% | 1022.8 hPa | 0 mm | - | 792 W/m² | - |
| 1787934492 | 19.44° C | 63% | 1022.5 hPa | 0 mm | - | 789 W/m² | - |
| 1787934187 | 19.44° C | 61% | 1022.5 hPa | 0 mm | - | 784 W/m² | - |
| 1787933894 | 19.44° C | 61% | 1022.5 hPa | 0 mm | - | 780 W/m² | - |
| 1787933586 | 20° C | 59% | 1022.5 hPa | 0 mm | - | 777 W/m² | - |
| 1787933281 | 20° C | 62% | 1022.6 hPa | 0 mm | - | 773 W/m² | - |
| 1787932980 | 19.44° C | 65% | 1022.4 hPa | 0 mm | - | 769 W/m² | - |
| 1787932680 | 19.44° C | 65% | 1022.6 hPa | 0 mm | - | 761 W/m² | - |
| 1787932380 | 20° C | 62% | 1022.7 hPa | 0 mm | - | 758 W/m² | - |
| 1787932080 | 20° C | 63% | 1022.5 hPa | 0 mm | - | 751 W/m² | - |
| 1787931779 | 19.44° C | 61% | 1022.5 hPa | 0 mm | - | 744 W/m² | - |
| 1787931473 | 19.44° C | 63% | 1022.3 hPa | 0 mm | - | 739 W/m² | - |
| 1787931168 | 19.44° C | 66% | 1022.2 hPa | 0 mm | - | 731 W/m² | - |
| 1787930867 | 19.44° C | 64% | 1022.3 hPa | 0 mm | - | 721 W/m² | - |
* Rain latest hour (hover to see other rain measurements)
** Current wind speed in m/s (hover to see current wind gust speed)